• MPC Preparation (Info)

  • MPEC 2014-A41 : 2014 AX16

    The following Minor Planet Electronic Circular may be linked-to from your own Web pages, but must not otherwise be redistributed electronically.

    A form allowing access to any MPEC is at the bottom of this page.


    Read MPEC 2014-A40 Read MPEC 2014-A42


    M.P.E.C. 2014-A41                                Issued 2014 Jan. 6, 17:04 UT
    
         The Minor Planet Electronic Circulars contain information on unusual
             minor planets and routine data on comets.  They are published
       on behalf of Commission 20 of the International Astronomical Union by the
              Minor Planet Center, Smithsonian Astrophysical Observatory,
                              Cambridge, MA 02138, U.S.A.
    
                 Prepared using the Tamkin Foundation Computer Network
    
                                  MPC@CFA.HARVARD.EDU
                URL https://www.minorplanetcenter.net/    ISSN 1523-6714
    
                                       2014 AX16
    
    Observations:
         K14A16X* C2014 01 01.38516 04 07 10.406+63 31 15.04         19.9 gLEA041F51
         K14A16X  C2014 01 01.39221 04 07 10.951+63 31 01.31         20.1 gLEA041F51
         K14A16X  C2014 01 02.24120 04 08 27.810+63 03 57.20         20.4 gLEA041F51
         K14A16X  C2014 01 02.25494 04 08 28.896+63 03 31.20         20.3 gLEA041F51
         K14A16X  C2014 01 02.88437 04 09 24.81 +62 43 12.4          18.9 VoEA041033
         K14A16X  C2014 01 02.88736 04 09 24.98 +62 43 07.5          18.9 VoEA041033
         K14A16X  C2014 01 02.99161 04 09 34.05 +62 39 43.3          18.8 VoEA041033
         K14A16X  C2014 01 02.99641 04 09 34.32 +62 39 34.7          18.9 VoEA041033
         K14A16X  C2014 01 03.03359 04 09 37.74 +62 38 20.6          19.0 VoEA041033
         K14A16X  C2014 01 03.03840 04 09 38.00 +62 38 12.0          19.0 VoEA041033
         K14A16X KC2014 01 03.13849604 09 48.11 +62 35 02.8          20.3 VuEA041H21
         K14A16X KC2014 01 03.14223504 09 48.38 +62 34 56.0          20.3 VuEA041H21
         K14A16X KC2014 01 03.14562204 09 48.64 +62 34 49.0          19.9 VuEA041H21
         K14A16X  C2014 01 04.14554 04 11 20.91 +62 02 22.2                oEA041711
         K14A16X IC2014 01 04.14840 04 11 21.15 +62 02 16.7                oEA041711
         K14A16X  C2014 01 04.15128 04 11 21.39 +62 02 11.1                oEA041711
         K14A16X KC2014 01 05.93967 04 14 08.44 +61 03 20.0          20.0 VqEA041C43
         K14A16X KC2014 01 05.96278 04 14 11.04 +61 02 32.9          20.1 VqEA041C43
    
    Observer details:
    033 Karl Schwarzschild Observatory, Tautenburg.  Observer B. Stecklum.  1.34-m
        f/4 Schmidt + CCD.
    711 McDonald Observatory.  Observer J. G. Ries.  2.1-m reflector + CCD + focal
        reducer.
    C43 Hoyerswerda.  Observer P. Lindner.  0.30-m f/6.3 Schmidt-Cassegrain + CCD.
    F51 Pan-STARRS 1, Haleakala.  Observers N. Primak, A. Schultz. T. Goggia,
        M. Willman.  Measurer PS1 Science Consortium.  1.8-m Ritchey-Chretien
        + CCD.
    H21 Astronomical Research Observatory, Westfield.  Observer R. Holmes.
        Measurers T. Linder, S. Foglia, L. Buzzi, T. Vorobjov.  0.61-m f/4.5
        astrograph + CCD.
    
    Orbital elements:
    2014 AX16
    Epoch 2013 Nov. 4.0 TT = JDT 2456600.5                  MPC
    M 355.50270              (2000.0)            P               Q
    n   0.16737288     Peri.  113.73689     +0.29658255     -0.90271999
    a   3.2609639      Node   314.98872     +0.63373623     +0.43017420
    e   0.5112521      Incl.   26.14695     +0.71443487     -0.00683893
    P   5.89           H   17.9           G   0.15           U   7
    Residuals in seconds of arc
    140101 F51  0.1+  0.0     140102 033  0.5+  0.3-    140103 H21  0.1-  0.3-
    140101 F51  0.0   0.1-    140102 033  0.5-  0.6+    140104 711  0.2+  0.1-
    140102 F51  0.1+  0.1+    140103 033  0.6+  0.3-    140104 711  0.2+  0.0
    140102 F51  0.1-  0.1+    140103 033  0.5-  0.6+    140104 711  0.2+  0.0
    140102 033  0.2-  0.7-    140103 H21  0.3+  0.3-    140105 C43  1.9-  0.4+
    140102 033  0.7-  0.2+    140103 H21  0.1+  0.1+    140105 C43  1.7+  0.3-
    
    Ephemeris:
    2014 AX16                a,e,i = 3.26, 0.51, 26                  q = 1.5938
    Date    TT    R. A. (2000) Decl.     Delta      r     Elong.  Phase     V
    2013 12 07    03 43 45.7 +73 59 09   0.7888  1.5949   127.7    29.3    19.7
    ...
    2013 12 22    03 53 47.0 +68 36 21   0.7803  1.6070   130.9    27.5    19.6
    ...
    2013 12 30    04 03 45.9 +64 45 44   0.7887  1.6187   131.7    27.0    19.6
    ...
    2014 01 05    04 12 40.3 +61 34 20   0.8021  1.6299   131.5    26.8    19.7
    2014 01 06    04 14 14.9 +61 01 21   0.8050  1.6319   131.5    26.8    19.7
    2014 01 07    04 15 50.9 +60 28 07   0.8081  1.6340   131.4    26.9    19.7
    ...
    2014 01 13    04 25 50.9 +57 05 20   0.8305  1.6477   130.4    27.1    19.8
    ...
    2014 01 21    04 39 56.1 +52 32 45   0.8713  1.6687   128.1    27.7    19.9
    ...
    2014 02 05    05 07 33.1 +44 28 32   0.9816  1.7160   121.4    29.4    20.3
    
    A. U. Tomatic                (C) Copyright 2014 MPC           M.P.E.C. 2014-A41
    

    Read MPEC 2014-A40 Read MPEC 2014-A42


    MPEC number:

    Enter an MPEC number in one of the following forms:

    • 1997-B01 (the full form)
    • J97B01 (the packed version of the full form)
    • B01 (the abbreviated form)